FW4517 Weather Reports


time (UTC)temp
C
wind
direction
speed
KPH
gust
KPH
rain 1hr
cm
rain 24hr
cm
rain mn
cm
humidity
%
barometer
mb
20260906220111 26 316 0.0 8.0 0.00 0.00 0.00 51 1016.6
20260906213924 27 306 1.6 8.0 0.00 0.00 0.00 40 1017.0
20260906212913 27 310 0.0 6.4 0.00 0.00 0.00 40 1017.2
20260906210823 28 314 1.6 8.0 0.00 0.00 0.00 37 1017.4
20260906205824 29 309 1.6 8.0 0.00 0.00 0.00 35 1017.5
20260906204827 29 301 3.2 12.9 0.00 0.00 0.00 35 1017.6
20260906203811 30 307 3.2 12.9 0.00 0.00 0.00 35 1017.8
20260906202816 28 303 3.2 9.7 0.00 0.00 0.00 38 1017.8
20260906200632 29 294 1.6 9.7 0.00 0.00 0.00 36 1018.1
20260906195626 30 304 1.6 9.7 0.00 0.00 0.00 38 1018.1
20260906194620 28 316 1.6 9.7 0.00 0.00 0.00 38 1018.2
20260906193615 29 309 1.6 8.0 0.00 0.00 0.00 37 1018.4
20260906192622 29 300 3.2 8.0 0.00 0.00 0.00 39 1018.6
20260906191645 29 297 3.2 8.0 0.00 0.00 0.00 38 1018.7
20260906190627 28 5 3.2 8.0 0.00 0.00 0.00 39 1018.9
20260906185651 28 292 1.6 8.0 0.00 0.00 0.00 37 1019.1
20260906184627 28 311 1.6 11.3 0.00 0.00 0.00 40 1019.2
20260906182512 27 307 1.6 6.4 0.00 0.00 0.00 39 1019.8
20260906180412 27 293 0.0 6.4 0.00 0.00 0.00 39 1020.2
20260906175433 27 286 0.0 6.4 0.00 0.00 0.00 38 1020.5
20260906174441 27 302 0.0 0.0 0.00 0.00 0.00 38 1020.6
20260906173408 27 252 0.0 1.6 0.00 0.00 0.00 37 1020.7
20260906172413 27 289 0.0 3.2 0.00 0.00 0.00 38 1020.9
20260906171359 26 248 0.0 1.6 0.00 0.00 0.00 42 1021.1
20260906170353 26 302 0.0 1.6 0.00 0.00 0.00 39 1021.2
20260906164250 25 295 0.0 1.6 0.00 0.00 0.00 41 1021.2
20260906163235 25 300 0.0 0.0 0.00 0.00 0.00 44 1021.3
20260906162210 23 296 0.0 0.0 0.00 0.00 0.00 45 1021.4
20260906161201 24 262 0.0 0.0 0.00 0.00 0.00 45 1021.6
20260906160126 23 288 0.0 0.0 0.00 0.00 0.00 44 1021.5
20260906155131 23 327 0.0 0.0 0.00 0.00 0.00 48 1021.4
20260906154131 22 327 0.0 0.0 0.00 0.00 0.00 49 1021.2
20260906153108 21 254 0.0 0.0 0.00 0.00 0.00 49 1021.3
20260906152036 21 254 0.0 3.2 0.00 0.00 0.00 52 1021.3
20260906151007 20 254 0.0 3.2 0.00 0.00 0.00 53 1021.4
20260906150010 20 276 0.0 0.0 0.00 0.00 0.00 57 1021.3
20260906144946 20 292 0.0 0.0 0.00 0.00 0.00 57 1021.3
20260906143919 18 292 0.0 0.0 0.00 0.00 0.00 61 1021.3
20260906141755 17 262 0.0 3.2 0.00 0.00 0.00 73 1021.3
20260906135619 16 292 0.0 0.0 0.00 0.00 0.00 83 1021.3
20260906134553 15 292 0.0 0.0 0.00 0.00 0.00 84 1021.2
20260906132440 15 300 0.0 0.0 0.00 0.00 0.00 82 1020.9
20260906131443 15 300 0.0 0.0 0.00 0.00 0.00 82 1020.8
20260906130442 15 300 0.0 0.0 0.00 0.00 0.00 77 1020.9
20260906125425 14 300 0.0 0.0 0.00 0.00 0.00 77 1020.9
20260906124444 14 300 0.0 0.0 0.00 0.00 0.00 74 1020.8
20260906123431 14 300 0.0 0.0 0.00 0.00 0.00 74 1020.7
20260906122358 15 301 0.0 0.0 0.00 0.00 0.00 70 1020.6
20260906121327 15 264 0.0 1.6 0.00 0.00 0.00 67 1020.6
20260906120300 15 242 0.0 3.2 0.00 0.00 0.00 66 1020.7
20260906115306 15 240 0.0 0.0 0.00 0.00 0.00 66 1020.6
20260906114239 15 240 0.0 1.6 0.00 0.00 0.00 64 1020.8
20260906112120 15 285 0.0 0.0 0.00 0.00 0.00 65 1020.6
20260906105941 15 230 0.0 0.0 0.00 0.00 0.00 64 1020.4
20260906104938 15 229 0.0 0.0 0.00 0.00 0.00 63 1020.4
20260906103946 16 230 0.0 0.0 0.00 0.00 0.00 62 1020.5
20260906101853 16 230 0.0 0.0 0.00 0.00 0.00 60 1020.2
20260906100844 16 229 0.0 0.0 0.00 0.00 0.00 59 1020.2
20260906095848 16 230 0.0 0.0 0.00 0.00 0.00 58 1020.3
20260906094910 16 307 0.0 0.0 0.00 0.00 0.00 59 1020.3
20260906093915 16 314 0.0 0.0 0.00 0.00 0.00 59 1020.2
20260906092900 16 314 0.0 0.0 0.00 0.00 0.00 62 1020.2
20260906091857 16 314 0.0 0.0 0.00 0.00 0.00 61 1020.3
20260906090843 16 314 0.0 0.0 0.00 0.00 0.00 61 1020.2
20260906085853 16 314 0.0 0.0 0.00 0.00 0.00 59 1020.2
20260906084834 17 314 0.0 0.0 0.00 0.00 0.00 57 1020.1
20260906082644 16 314 0.0 0.0 0.00 0.00 0.00 61 1020.1
20260906081633 16 314 0.0 0.0 0.00 0.00 0.00 60 1020.3
20260906080616 17 314 0.0 0.0 0.00 0.00 0.00 59 1020.3
20260906075620 17 239 0.0 0.0 0.00 0.00 0.00 60 1020.3
20260906074556 17 239 0.0 0.0 0.00 0.00 0.00 58 1020.3
20260906073532 17 239 0.0 0.0 0.00 0.00 0.00 58 1020.3
20260906072538 18 239 0.0 0.0 0.00 0.00 0.00 56 1020.2
20260906071556 18 244 0.0 3.2 0.00 0.00 0.00 56 1020.2
20260906070611 18 283 0.0 3.2 0.00 0.00 0.00 54 1020.1
20260906065630 18 262 0.0 0.0 0.00 0.00 0.00 53 1020.1
20260906064645 19 262 0.0 0.0 0.00 0.00 0.00 50 1020.0
20260906063653 20 298 0.0 0.0 0.00 0.00 0.00 50 1020.1
20260906061508 20 317 0.0 1.6 0.00 0.00 0.00 53 1020.2
20260906060503 20 297 0.0 0.0 0.00 0.00 0.00 51 1020.3
20260906055503 20 231 0.0 4.8 0.00 0.00 0.00 52 1020.5
20260906054428 20 320 0.0 9.7 0.00 0.00 0.00 49 1020.5
20260906053437 20 86 0.0 9.7 0.00 0.00 0.00 50 1020.5
20260906052403 21 309 1.6 11.3 0.00 0.00 0.00 46 1020.7
20260906050305 21 303 0.0 0.0 0.00 0.00 0.00 49 1020.7
20260906045306 21 303 0.0 0.0 0.00 0.00 0.00 52 1020.6
20260906044236 22 303 0.0 0.0 0.00 0.00 0.00 54 1020.7
20260906043221 22 303 0.0 0.0 0.00 0.00 0.00 54 1020.7
20260906042200 22 303 0.0 0.0 0.00 0.00 0.00 52 1020.7
20260906041225 22 303 0.0 1.6 0.00 0.00 0.00 46 1020.7
20260906035102 23 314 1.6 8.0 0.00 0.00 0.00 41 1020.7
20260906034047 23 316 1.6 8.0 0.00 0.00 0.00 38 1020.5
20260906033022 23 309 0.0 6.4 0.00 0.00 0.00 39 1020.5
20260906032006 23 327 0.0 0.0 0.00 0.00 0.00 37 1020.0
20260906031009 23 328 0.0 0.0 0.00 0.00 0.00 35 1019.6
20260906025958 23 335 0.0 3.2 0.00 0.00 0.00 36 1019.4
20260906023837 23 321 0.0 0.0 0.00 0.00 0.00 36 1019.2
20260906022824 23 309 0.0 0.0 0.00 0.00 0.00 35 1019.0
20260906020632 22 309 0.0 0.0 0.00 0.00 0.00 37 1018.9
20260906015615 22 309 0.0 0.0 0.00 0.00 0.00 38 1018.8
20260906013427 23 309 0.0 0.0 0.00 0.00 0.00 35 1018.6
20260906012435 23 309 0.0 0.0 0.00 0.00 0.00 34 1018.6
20260906011438 24 309 0.0 0.0 0.00 0.00 0.00 34 1018.6
20260906010431 25 309 0.0 0.0 0.00 0.00 0.00 33 1018.5
20260906005426 26 309 0.0 0.0 0.00 0.00 0.00 32 1018.6
20260906004433 26 309 0.0 0.0 0.00 0.00 0.00 32 1018.6
20260906003404 27 309 0.0 0.0 0.00 0.00 0.00 30 1018.6
20260906002410 28 309 0.0 0.0 0.00 0.00 0.00 28 1018.6
20260906001428 28 273 0.0 4.8 0.00 0.00 0.00 27 1018.6
20260906000425 29 248 0.0 1.6 0.00 0.00 0.00 28 1018.5
20260905235353 29 272 0.0 4.8 0.00 0.00 0.00 27 1018.4
20260905234333 30 310 0.0 4.8 0.00 0.00 0.00 27 1018.4
20260905233347 30 307 0.0 8.0 0.00 0.00 0.00 25 1018.3
20260905232315 30 301 0.0 0.0 0.00 0.00 0.00 25 1018.4
20260905231308 30 293 0.0 1.6 0.00 0.00 0.00 26 1018.4
20260905230256 28 302 0.0 1.6 0.00 0.00 0.00 29 1018.4
20260905224117 28 302 0.0 1.6 0.00 0.00 0.00 28 1018.4
20260905221941 29 307 0.0 6.4 0.00 0.00 0.00 27 1018.5